Weather History for Monroe, MI

Change the Weather History Date:

Friday, January 10, 2014

  Actual Average Record
Temperature  
Mean Temperature 32 °F -  
Max Temperature 37 °F 28 °F 59 °F (1950)
Min Temperature 26 °F 16 °F -6 °F (1962)
Degree Days  
Heating Degree Days 34    
Moisture  
Dew Point 33 °F    
Average Humidity 95    
Maximum Humidity 100    
Minimum Humidity 87    
Precipitation  
Precipitation 0.00 in - - ()
Sea Level Pressure  
Sea Level Pressure 30.03 in    
Wind  
Wind Speed 2 mph (SSE)    
Max Wind Speed 10 mph    
Max Gust Speed -    
Visibility 3 miles    
Events Rain , Snow    
Averages and records for this station are not official NWS values.
T = Trace of Precipitation, MM = Missing Value Source: NWS Daily Summary

Daily Weather History Graph

Daily Weather History Graph

Search for Another Location

Airport:

Trip Planner

Search our weather history database for the weather conditions in past years. The results will help you decide how hot, cold, wet, or windy it might be!

Date:

Astronomy

Jan. 10, 2014 Rise Set
Actual Time 8:00 AM EST 5:22 PM EST
Civil Twilight 7:29 AM EST 5:53 PM EST
Nautical Twilight 6:55 AM EST 6:27 PM EST
Astronomical Twilight 6:21 AM EST 7:01 PM EST
Moon 1:26 PM EST (1/10) 3:05 AM EST (1/10)
Length of Visible Light 10h 23m
Length of Day
9h 21m
Waxing Gibbous, 75% of the Moon is Illuminated
Jan 10
Waxing Gibbous
Jan 15
Full
Jan 24
Last Quarter
Jan 30
New
Feb 6
First Quarter

Hourly Weather History & Observations

Time (EST) Temp. Windchill Dew Point Humidity Pressure Visibility Wind Dir Wind Speed Gust Speed Precip Events Conditions
12:15 AM 26.6 °F - 26.6 °F 100% 30.25 in 2.5 mi Calm Calm - N/A Snow Light Snow
12:30 AM 26.6 °F - 26.6 °F 100% 30.25 in 2.5 mi Calm Calm - N/A Snow Light Snow
3:03 AM 28.4 °F - 28.4 °F 100% 30.21 in 2.0 mi Calm Calm - N/A Snow Light Snow
3:13 AM 28.4 °F - 28.4 °F 100% 30.21 in 2.5 mi Calm Calm - N/A Snow Light Snow
3:33 AM 28.4 °F - 28.4 °F 100% 30.21 in 2.5 mi Calm Calm - N/A Snow Light Snow
3:53 AM 28.4 °F - 28.4 °F 100% 30.20 in 3.0 mi Calm Calm - N/A   Overcast
4:14 AM 28.4 °F - 28.4 °F 100% 30.19 in 4.0 mi Calm Calm - N/A   Overcast
4:34 AM 30.2 °F - 28.4 °F 93% 30.19 in 3.0 mi Calm Calm - N/A   Overcast
4:54 AM 30.2 °F - 28.4 °F 93% 30.18 in 3.0 mi Calm Calm - N/A   Overcast
5:14 AM 30.2 °F - 28.4 °F 93% 30.18 in 4.0 mi Calm Calm - N/A   Overcast
5:34 AM 30.2 °F - 30.2 °F 100% 30.17 in 4.0 mi Calm Calm - N/A   Overcast
5:54 AM 30.2 °F - 30.2 °F 100% 30.17 in 4.0 mi Calm Calm - N/A   Overcast
6:14 AM 30.2 °F - 30.2 °F 100% 30.16 in 4.0 mi Calm Calm - N/A   Overcast
6:34 AM 30.2 °F - 30.2 °F 100% 30.15 in 3.0 mi Calm Calm - N/A   Overcast
6:54 AM 30.2 °F - 30.2 °F 100% 30.16 in 3.0 mi Calm Calm - N/A   Overcast
7:15 AM 32.0 °F - 30.2 °F 93% 30.16 in 3.0 mi Calm Calm - N/A   Overcast
7:35 AM 32.0 °F - 30.2 °F 93% 30.16 in 3.0 mi Calm Calm - N/A   Overcast
7:55 AM 32.0 °F - 32.0 °F 100% 30.16 in 3.0 mi Calm Calm - N/A   Overcast
8:15 AM 32.0 °F - 32.0 °F 100% 30.16 in 3.0 mi Calm Calm - N/A   Overcast
8:35 AM 33.8 °F - 32.0 °F 93% 30.16 in 2.5 mi Calm Calm - N/A   Overcast
8:55 AM 33.8 °F - 32.0 °F 93% 30.17 in 3.0 mi Calm Calm - N/A   Overcast
9:15 AM 33.8 °F - 32.0 °F 93% 30.16 in 4.0 mi Calm Calm - N/A   Overcast
9:36 AM 33.8 °F - 32.0 °F 93% 30.16 in 4.0 mi Calm Calm - N/A   Overcast
9:56 AM 33.8 °F - 32.0 °F 93% 30.16 in 5.0 mi Calm Calm - N/A   Overcast
10:16 AM 35.6 °F - 32.0 °F 87% 30.17 in 5.0 mi Calm Calm - N/A   Overcast
10:36 AM 35.6 °F - 32.0 °F 87% 30.16 in 5.0 mi Calm Calm - N/A   Overcast
10:56 AM 35.6 °F 29.9 °F 33.8 °F 93% 30.16 in 5.0 mi South 6.9 mph - N/A   Overcast
11:16 AM 35.6 °F 29.9 °F 33.8 °F 93% 30.15 in 5.0 mi South 6.9 mph - N/A   Overcast
11:36 AM 35.6 °F - 33.8 °F 93% 30.14 in 4.0 mi Calm Calm - N/A   Overcast
11:56 AM 35.6 °F 31.7 °F 33.8 °F 93% 30.12 in 4.0 mi South 4.6 mph - N/A   Overcast
12:16 PM 35.6 °F 30.7 °F 33.8 °F 93% 30.10 in 4.0 mi South 5.8 mph - N/A   Overcast
12:36 PM 35.6 °F 29.9 °F 33.8 °F 93% 30.09 in 4.0 mi South 6.9 mph - N/A   Overcast
12:56 PM 37.4 °F 32.1 °F 33.8 °F 87% 30.07 in 4.0 mi South 6.9 mph - N/A   Overcast
1:16 PM 37.4 °F 31.4 °F 33.8 °F 87% 30.05 in 4.0 mi South 8.1 mph - N/A   Overcast
1:37 PM 37.4 °F 32.8 °F 35.6 °F 93% 30.04 in 4.0 mi SSW 5.8 mph - N/A   Overcast
1:57 PM 37.4 °F 30.3 °F 35.6 °F 93% 30.05 in 4.0 mi SSW 10.4 mph - N/A   Overcast
2:12 PM 37.4 °F 32.8 °F 35.6 °F 93% 30.04 in 3.0 mi South 5.8 mph - N/A   Overcast
2:32 PM 37.4 °F 32.8 °F 35.6 °F 93% 30.01 in 3.0 mi SE 5.8 mph - N/A   Overcast
2:52 PM 37.4 °F 34.9 °F 35.6 °F 93% 30.01 in 4.0 mi SSE 3.5 mph - N/A   Overcast
3:12 PM 37.4 °F 31.4 °F 35.6 °F 93% 30.01 in 3.0 mi SSE 8.1 mph - N/A   Overcast
3:32 PM 37.4 °F 31.4 °F 35.6 °F 93% 29.98 in 3.0 mi SE 8.1 mph - N/A   Overcast
3:52 PM 37.4 °F 32.1 °F 35.6 °F 93% 29.99 in 4.0 mi SSE 6.9 mph - N/A   Overcast
4:13 PM 37.4 °F 32.1 °F 35.6 °F 93% 29.97 in 4.0 mi SSE 6.9 mph - N/A   Overcast
4:33 PM 35.6 °F 28.6 °F 35.6 °F 100% 29.96 in 4.0 mi SSE 9.2 mph - N/A   Overcast
4:53 PM 37.4 °F 31.4 °F 35.6 °F 93% 29.96 in 4.0 mi SSE 8.1 mph - N/A   Overcast
5:13 PM 35.6 °F 29.2 °F 35.6 °F 100% 29.93 in 3.0 mi SE 8.1 mph - N/A   Overcast
5:33 PM 35.6 °F 28.6 °F 35.6 °F 100% 29.93 in 4.0 mi SSE 9.2 mph - N/A   Overcast
5:53 PM 37.4 °F 30.8 °F 35.6 °F 93% 29.91 in 4.0 mi SSE 9.2 mph - N/A   Overcast
6:13 PM 37.4 °F 31.4 °F 35.6 °F 93% 29.90 in 4.0 mi SSE 8.1 mph - N/A   Overcast
6:33 PM 37.4 °F 31.4 °F 35.6 °F 93% 29.90 in 3.0 mi SSE 8.1 mph - N/A   Overcast
6:55 PM 37.4 °F 30.8 °F 35.6 °F 93% 29.88 in 3.0 mi SSE 9.2 mph - N/A   Overcast
7:15 PM 37.4 °F 30.3 °F 35.6 °F 93% 29.88 in 2.5 mi SE 10.4 mph - N/A   Overcast
7:36 PM 37.4 °F 31.4 °F 35.6 °F 93% 29.86 in 1.0 mi SE 8.1 mph - N/A   Overcast
7:56 PM 37.4 °F 32.1 °F 35.6 °F 93% 29.86 in 0.5 mi SE 6.9 mph - N/A   Drizzle
8:16 PM 37.4 °F 31.4 °F 35.6 °F 93% 29.84 in 0.2 mi SE 8.1 mph - N/A Rain Light Rain
8:36 PM 37.4 °F 32.8 °F 35.6 °F 93% 29.83 in 0.5 mi ESE 5.8 mph - N/A Rain Light Rain
8:56 PM 37.4 °F 33.8 °F 35.6 °F 93% 29.82 in 0.5 mi SE 4.6 mph - N/A Rain Rain
9:16 PM 37.4 °F 34.9 °F 35.6 °F 93% 29.82 in 0.5 mi SE 3.5 mph - N/A Rain Rain
9:36 PM 35.6 °F 32.8 °F 35.6 °F 100% 29.81 in 0.5 mi ESE 3.5 mph - N/A Rain Light Rain
9:57 PM 35.6 °F 31.7 °F 35.6 °F 100% 29.79 in 1.2 mi ESE 4.6 mph - N/A Snow Light Snow
10:12 PM 35.6 °F 32.8 °F 35.6 °F 100% 29.77 in 1.2 mi ESE 3.5 mph - N/A Rain Rain
10:32 PM 35.6 °F 32.8 °F 35.6 °F 100% 29.76 in 1.2 mi ESE 3.5 mph - N/A   Overcast
10:52 PM 35.6 °F 32.8 °F 35.6 °F 100% 29.73 in 1.0 mi ESE 3.5 mph - N/A   Overcast
11:12 PM 37.4 °F 34.9 °F 35.6 °F 93% 29.72 in 0.8 mi SE 3.5 mph - N/A Rain Rain
11:32 PM 37.4 °F 33.8 °F 37.4 °F 100% 29.70 in 1.0 mi SE 4.6 mph - N/A Rain Rain
11:52 PM 37.4 °F 33.8 °F 37.4 °F 100% 29.68 in 1.2 mi SE 4.6 mph - N/A Rain Light Rain